Flag for U.S.A. Weather past 2 weeks in Escondido, California, U.S.A.

Now
56 °F

Light rain. Overcast.


Feels Like: 54 °F
Forecast: 50 / 65 °F
Wind: 7 mph from Northwest

Location: Ramona Airport

Current Time: Jan 30, 2015 at 5:25:56 PM

Latest Report: Jan 30, 2015 at 4:53 PM


Visibility: 10 mi

Pressure: 29.85 "Hg

Humidity: 81%

Dew point: 50 °F

Location of EscondidoLocation

Historic Weather in Escondido — Graph

°F

Escondido temperature yesterday

Maximum temperature yesterday: 68 °F (at 10:53 AM)
Minimum temperature yesterday: 50 °F (at 6:53 AM)
Average temperature yesterday: 57 °F

Past Weeks' High & Low Weather Summary

 TemperatureHumidityPressure
High74 °F (Jan 17, 11:53 AM)100% (Jan 26, 9:00 PM)30.25 "Hg (Jan 26, 9:00 PM)
Low33 °F (Jan 22, 4:53 AM)8% (Jan 23, 12:53 PM)29.85 "Hg (Jan 30, 2:53 PM)
Average55 °F58%30.08 "Hg
* Reported Jan 15 3:53 PM — Jan 30 3:53 PM, Escondido, Weather by CustomWeather, © 2014

Note: Actual official high and low records may vary slightly from our data, if they occured in-between our weather recording intervals... More about our weather records

Advertising

Escondido weather history for previous 24 hours

 ConditionsComfort  
Time TempWeatherWind HumidityBarometerVisibility
3:53 PM
Jan 30
58 °FOvercast.5 mph72%29.85 "Hg10 mi
2:53 PM59 °FLight rain. More clouds than sun.No wind64%29.85 "Hg10 mi
1:53 PM59 °FOvercast.No wind62%29.85 "Hg10 mi
12:53 PM58 °FOvercast.5 mph67%29.87 "Hg10 mi
11:53 AM58 °FOvercast.6 mph70%29.90 "Hg10 mi
10:53 AM58 °FOvercast.5 mph75%29.92 "Hg10 mi
9:53 AM56 °FOvercast.3 mph77%29.93 "Hg10 mi
8:53 AM56 °FOvercast.No wind77%29.92 "Hg10 mi
7:53 AM54 °FOvercast.No wind83%29.91 "Hg10 mi
6:53 AM53 °FOvercast.No wind83%29.90 "Hg10 mi
5:53 AM53 °FOvercast.No wind86%29.90 "Hg10 mi
4:53 AM52 °FCool.No wind89%29.90 "Hg10 mi
3:53 AM53 °FOvercast.No wind89%29.91 "Hg10 mi
2:53 AM52 °FOvercast.No wind97%29.93 "Hg8 mi
1:53 AM52 °FOvercast.No wind97%29.95 "Hg7 mi
12:53 AM52 °FOvercast.No wind93%29.96 "Hg10 mi
11:53 PM
Jan 29
52 °FMostly cloudy.No wind97%29.98 "Hg9 mi
10:53 PM54 °FMostly cloudy.No wind86%29.98 "Hg10 mi
9:53 PM54 °FOvercast.3 mph90%30.00 "Hg10 mi
8:53 PM54 °FMostly cloudy.5 mph90%30.01 "Hg10 mi
7:53 PM55 °FLight rain. Overcast.No wind83%30.03 "Hg10 mi
6:53 PM57 °FMostly cloudy.No wind81%30.02 "Hg10 mi
5:53 PM57 °FOvercast.10 mph78%29.99 "Hg10 mi
Weather by CustomWeather, © 2014

See weather overviewHow to use our weather pages